• Em Portugal
  • Lista de países
  • Para 7 dias
  • Temperatura da água
  • Mapas de satélite
  • Mapa do tempo
  • Widgets de tempo
  • user-avatar
    Iniciar Sessão

    Previsão horária em Orsha

    Hoje, 18 Outubro, Quinta-feira

    Tempo Temperatura Precipitação Vento Pressão Humidade
    00:00 +12°C° 0 mm 2 m/s 752 mmHg 86%
    01:00 +12°C° 0 mm 2 m/s 752 mmHg 87%
    02:00 +12°C° 0 mm 2 m/s 752 mmHg 87%
    03:00 +10°C° 0 mm 2 m/s 751 mmHg 88%
    04:00 +10°C° 0 mm 2 m/s 751 mmHg 89%
    05:00 +10°C° 0 mm 2 m/s 751 mmHg 89%
    06:00 +10°C° 0 mm 2 m/s 751 mmHg 89%
    07:00 +12°C° 0 mm 2 m/s 751 mmHg 88%
    08:00 +12°C° 0 mm 2 m/s 751 mmHg 87%
    09:00 +14°C° 0 mm 2 m/s 751 mmHg 81%
    10:00 +16°C° 0 mm 2 m/s 751 mmHg 75%
    11:00 +18°C° 0 mm 2 m/s 750 mmHg 68%
    12:00 +18°C° 0 mm 2 m/s 750 mmHg 66%
    13:00 +19°C° 0 mm 2 m/s 750 mmHg 64%
    14:00 +20°C° 0 mm 3 m/s 749 mmHg 62%
    15:00 +18°C° 0 mm 2 m/s 749 mmHg 68%
    16:00 +17°C° 0 mm 2 m/s 749 mmHg 73%
    17:00 +16°C° 0 mm 2 m/s 748 mmHg 79%
    18:00 +15°C° 0 mm 2 m/s 748 mmHg 81%
    19:00 +14°C° 0 mm 2 m/s 748 mmHg 83%
    20:00 +14°C° 0 mm 2 m/s 748 mmHg 85%
    21:00 +14°C° 0 mm 2 m/s 748 mmHg 87%
    22:00 +13°C° 0 mm 2 m/s 747 mmHg 88%
    23:00 +13°C° 0 mm 2 m/s 747 mmHg 90%

    Amanhã, 19 Outubro, Sexta-feira

    Tempo Temperatura Precipitação Vento Pressão Humidade
    00:00 +13°C° 0 mm 2 m/s 747 mmHg 90%
    01:00 +12°C° 0 mm 2 m/s 747 mmHg 91%
    02:00 +12°C° 0 mm 2 m/s 747 mmHg 92%
    03:00 +12°C° 0 mm 2 m/s 747 mmHg 92%
    04:00 +11°C° 0 mm 1 m/s 747 mmHg 92%
    05:00 +11°C° 0 mm 1 m/s 746 mmHg 93%
    06:00 +11°C° 0 mm 1 m/s 746 mmHg 93%
    07:00 +12°C° 0 mm 1 m/s 746 mmHg 92%
    08:00 +12°C° 0 mm 1 m/s 747 mmHg 92%
    09:00 +13°C° 0 mm 1 m/s 747 mmHg 86%
    10:00 +14°C° 0 mm 2 m/s 747 mmHg 80%
    11:00 +16°C° 0 mm 2 m/s 747 mmHg 74%
    12:00 +16°C° 0 mm 2 m/s 747 mmHg 71%
    13:00 +16°C° 0 mm 2 m/s 747 mmHg 69%
    14:00 +17°C° 0 mm 3 m/s 747 mmHg 67%
    15:00 +14°C° 0 mm 3 m/s 747 mmHg 72%
    16:00 +13°C° 0 mm 3 m/s 747 mmHg 77%
    17:00 +12°C° 0 mm 3 m/s 747 mmHg 82%
    18:00 +11°C° 0 mm 3 m/s 748 mmHg 83%
    19:00 +11°C° 0 mm 3 m/s 748 mmHg 84%
    20:00 +10°C° 0 mm 4 m/s 748 mmHg 85%
    21:00 +9°C° 0 mm 3 m/s 749 mmHg 87%
    22:00 +8°C° 0 mm 3 m/s 749 mmHg 89%
    23:00 +7°C° 0 mm 3 m/s 749 mmHg 91%

    Depois de amanhã, 20 Outubro, Sábado

    Tempo Temperatura Precipitação Vento Pressão Humidade
    00:00 +7°C° 0 mm 3 m/s 749 mmHg 91%
    01:00 +6°C° 0 mm 2 m/s 749 mmHg 92%
    02:00 +5°C° 0 mm 2 m/s 750 mmHg 93%
    03:00 +5°C° 0 mm 2 m/s 750 mmHg 93%
    04:00 +5°C° 0 mm 2 m/s 750 mmHg 93%
    05:00 +4°C° 0 mm 2 m/s 750 mmHg 93%
    06:00 +5°C° 0 mm 2 m/s 750 mmHg 91%
    07:00 +5°C° 0 mm 2 m/s 751 mmHg 89%
    08:00 +5°C° 0 mm 2 m/s 751 mmHg 87%
    09:00 +6°C° 0 mm 2 m/s 751 mmHg 80%
    10:00 +8°C° 0 mm 2 m/s 751 mmHg 73%
    11:00 +9°C° 0 mm 2 m/s 751 mmHg 66%
    12:00 +9°C° 0 mm 2 m/s 751 mmHg 62%
    13:00 +10°C° 0 mm 2 m/s 751 mmHg 59%
    14:00 +10°C° 0 mm 2 m/s 751 mmHg 56%
    15:00 +9°C° 0 mm 2 m/s 750 mmHg 61%
    16:00 +8°C° 0 mm 2 m/s 750 mmHg 65%
    17:00 +7°C° 0 mm 2 m/s 750 mmHg 69%
    18:00 +8°C° 0 mm 1 m/s 750 mmHg 70%
    19:00 +7°C° 0 mm 1 m/s 750 mmHg 71%
    20:00 +7°C° 0 mm 1 m/s 750 mmHg 73%
    21:00 +6°C° 0 mm 1 m/s 750 mmHg 74%
    22:00 +6°C° 0 mm 1 m/s 750 mmHg 75%
    23:00 +6°C° 0 mm 1 m/s 750 mmHg 76%

    21 Outubro, Domingo

    Tempo Temperatura Precipitação Vento Pressão Humidade
    00:00 +6°C° 0 mm 1 m/s 749 mmHg 78%
    01:00 +5°C° 0 mm 1 m/s 749 mmHg 80%
    02:00 +5°C° 0 mm 1 m/s 749 mmHg 82%
    03:00 +5°C° 0.1 mm 1 m/s 749 mmHg 84%
    04:00 +5°C° 0.1 mm 1 m/s 748 mmHg 86%
    05:00 +5°C° 0.1 mm 1 m/s 748 mmHg 88%
    06:00 +5°C° 0.1 mm 1 m/s 749 mmHg 88%
    07:00 +6°C° 0.1 mm 1 m/s 749 mmHg 88%
    08:00 +6°C° 0.1 mm 1 m/s 749 mmHg 87%
    09:00 +7°C° 0 mm 1 m/s 749 mmHg 83%
    10:00 +7°C° 0 mm 2 m/s 750 mmHg 79%
    11:00 +8°C° 0 mm 2 m/s 750 mmHg 74%
    12:00 +8°C° 0 mm 2 m/s 750 mmHg 71%
    13:00 +9°C° 0 mm 3 m/s 750 mmHg 67%
    14:00 +9°C° 0 mm 3 m/s 750 mmHg 64%
    15:00 +8°C° 0 mm 2 m/s 751 mmHg 68%
    16:00 +7°C° 0 mm 2 m/s 751 mmHg 72%
    17:00 +6°C° 0 mm 2 m/s 751 mmHg 77%
    18:00 +6°C° 0 mm 2 m/s 751 mmHg 79%
    19:00 +5°C° 0 mm 2 m/s 752 mmHg 81%
    20:00 +5°C° 0 mm 2 m/s 752 mmHg 83%
    21:00 +4°C° 0 mm 2 m/s 752 mmHg 84%
    22:00 +5°C° 0 mm 1 m/s 752 mmHg 86%
    23:00 +5°C° 0 mm 1 m/s 752 mmHg 87%

    22 Outubro, Segunda-feira

    Tempo Temperatura Precipitação Vento Pressão Humidade
    00:00 +5°C° 0 mm 1 m/s 752 mmHg 88%
    01:00 +4°C° 0 mm 1 m/s 752 mmHg 89%
    02:00 +4°C° 0 mm 1 m/s 752 mmHg 90%
    03:00 +4°C° 0 mm 1 m/s 752 mmHg 90%
    04:00 +4°C° 0 mm 1 m/s 752 mmHg 91%
    05:00 +3°C° 0 mm 1 m/s 751 mmHg 91%
    06:00 +3°C° 0 mm 2 m/s 751 mmHg 90%
    07:00 +3°C° 0 mm 2 m/s 751 mmHg 89%
    08:00 +3°C° 0 mm 2 m/s 751 mmHg 88%
    09:00 +4°C° 0 mm 3 m/s 751 mmHg 81%
    10:00 +5°C° 0 mm 3 m/s 751 mmHg 74%
    11:00 +7°C° 0 mm 4 m/s 750 mmHg 67%
    12:00 +8°C° 0 mm 4 m/s 750 mmHg 65%
    13:00 +8°C° 0 mm 5 m/s 749 mmHg 62%
    14:00 +9°C° 0 mm 5 m/s 749 mmHg 60%
    15:00 +8°C° 0 mm 5 m/s 748 mmHg 64%
    16:00 +7°C° 0 mm 4 m/s 748 mmHg 68%
    17:00 +6°C° 0 mm 4 m/s 748 mmHg 73%
    18:00 +6°C° 0.2 mm 4 m/s 747 mmHg 75%
    19:00 +6°C° 0.2 mm 4 m/s 747 mmHg 78%
    20:00 +6°C° 0.2 mm 4 m/s 747 mmHg 80%
    21:00 +6°C° 0.6 mm 4 m/s 746 mmHg 84%
    22:00 +6°C° 0.6 mm 4 m/s 746 mmHg 88%
    23:00 +7°C° 0.6 mm 3 m/s 746 mmHg 92%

    23 Outubro, Terça-feira

    Tempo Temperatura Precipitação Vento Pressão Humidade
    00:00 +7°C° 0.1 mm 3 m/s 746 mmHg 94%
    01:00 +5°C° 0.1 mm 3 m/s 746 mmHg 95%
    02:00 +6°C° 0.1 mm 2 m/s 745 mmHg 96%
    03:00 +5°C° 0 mm 2 m/s 745 mmHg 96%
    04:00 +5°C° 0 mm 2 m/s 745 mmHg 97%
    05:00 +5°C° 0 mm 2 m/s 745 mmHg 97%
    06:00 +5°C° 0 mm 2 m/s 745 mmHg 95%
    07:00 +6°C° 0 mm 1 m/s 744 mmHg 93%
    08:00 +5°C° 0 mm 1 m/s 744 mmHg 92%
    09:00 +6°C° 0 mm 1 m/s 744 mmHg 85%
    10:00 +7°C° 0 mm 1 m/s 743 mmHg 78%
    11:00 +8°C° 0 mm 1 m/s 743 mmHg 72%
    12:00 +9°C° 0 mm 1 m/s 743 mmHg 70%
    13:00 +9°C° 0 mm 1 m/s 742 mmHg 68%
    14:00 +9°C° 0 mm 1 m/s 741 mmHg 66%
    15:00 +9°C° 0 mm 1 m/s 741 mmHg 71%
    16:00 +8°C° 0 mm 1 m/s 741 mmHg 75%
    17:00 +8°C° 0 mm 1 m/s 740 mmHg 80%
    18:00 +7°C° 0 mm 1 m/s 740 mmHg 82%
    19:00 +7°C° 0 mm 1 m/s 740 mmHg 84%
    20:00 +6°C° 0 mm 1 m/s 740 mmHg 86%
    21:00 +6°C° 0 mm 1 m/s 739 mmHg 87%
    22:00 +5°C° 0 mm 1 m/s 739 mmHg 89%
    23:00 +5°C° 0 mm 1 m/s 739 mmHg 90%
    Mostrar mais